This is the latest recevied weather packets stored in our database for station/object NM5PB-13. If no packets are shown the sender has not sent any weather packets the latest 10 day(s).
| Time | Temp. | Humidity | Pressure | Rain* | Wind** | Luminosity | Snow |
|---|---|---|---|---|---|---|---|
| 1787691177 | 26.11° C | 59% | 1017 hPa | 0 mm | - | - | - |
| 1787690269 | 26.11° C | 59% | 1016 hPa | 0 mm | - | - | - |
| 1787689365 | 26.11° C | 58% | 1016 hPa | 0 mm | - | - | - |
| 1787688460 | 26.11° C | 57% | 1017 hPa | 0 mm | - | - | - |
| 1787687555 | 26.11° C | 57% | 1017 hPa | 0 mm | - | - | - |
| 1787686652 | 25.56° C | 59% | 1017 hPa | 0 mm | - | - | - |
| 1787685749 | 25° C | 59% | 1018 hPa | 0 mm | - | - | - |
| 1787684846 | 25.56° C | 58% | 1018 hPa | 0 mm | - | - | - |
| 1787683944 | 25° C | 61% | 1018 hPa | 0 mm | - | - | - |
| 1787683040 | 25.56° C | 59% | 1018 hPa | 0 mm | - | - | - |
| 1787682137 | 25.56° C | 59% | 1018 hPa | 0 mm | - | - | - |
| 1787681233 | 25° C | 60% | 1019 hPa | 0 mm | - | - | - |
| 1787680327 | 24.44° C | 60% | 1019 hPa | 0 mm | - | - | - |
| 1787679424 | 25° C | 62% | 1019 hPa | 0 mm | - | - | - |
| 1787678521 | 24.44° C | 61% | 1019 hPa | 0 mm | - | - | - |
| 1787677615 | 24.44° C | 63% | 1019 hPa | 0 mm | - | - | - |
| 1787676712 | 24.44° C | 61% | 1019 hPa | 0 mm | - | - | - |
| 1787675804 | 24.44° C | 60% | 1019 hPa | 0 mm | - | - | - |
| 1787674902 | 23.89° C | 61% | 1019 hPa | 0 mm | - | - | - |
| 1787673999 | 23.33° C | 64% | 1019 hPa | 0 mm | - | - | - |
| 1787673095 | 23.33° C | 66% | 1019 hPa | 0 mm | - | - | - |
| 1787672192 | 22.78° C | 67% | 1019 hPa | 0 mm | - | - | - |
| 1787671287 | 22.78° C | 66% | 1019 hPa | 0 mm | - | - | - |
| 1787670385 | 22.22° C | 69% | 1019 hPa | 0 mm | - | - | - |
| 1787669479 | 22.22° C | 71% | 1019 hPa | 0 mm | - | - | - |
* Rain latest hour (hover to see other rain measurements)
** Current wind speed in m/s (hover to see current wind gust speed)